SEH476 LGPA-LGAV

Flight info

Callsign SEH476
Flight time 0h 24m
Altitude 12000
Route DIDIS R32 RIPLI L995 VARIX
Aircraft AT46/M-SDFGIRY/S

Departure

Time 2026-05-05 16:38
Airport Paros National Airport (LGPA)

Arrival

Time 2026-05-05 17:02
Airport Athens Eleftherios Venizelos International Airport (LGAV)
Time Latitude Longitude Altitude Speed Heading
2026-05-05 16:23 37.02047 25.11608 118 ft 0 kts 80°
2026-05-05 16:30 37.02047 25.11605 118 ft 1 kts 88°
2026-05-05 16:31 37.02046 25.11582 138 ft 4 kts 88°
2026-05-05 16:31 37.02046 25.11570 99 ft 0 kts 115°
2026-05-05 16:31 37.02046 25.11569 99 ft 0 kts 122°
2026-05-05 16:31 37.02041 25.11572 108 ft 0 kts 187°
2026-05-05 16:32 37.02040 25.11571 108 ft 0 kts 192°
2026-05-05 16:34 37.01971 25.11524 115 ft 33 kts 219°
2026-05-05 16:34 37.01888 25.11435 117 ft 10 kts 221°
2026-05-05 16:34 37.01843 25.11393 112 ft 5 kts 201°
2026-05-05 16:34 37.01815 25.11384 115 ft 4 kts 194°
2026-05-05 16:35 37.01789 25.11384 114 ft 6 kts 174°
2026-05-05 16:35 37.01725 25.11394 116 ft 12 kts 171°
2026-05-05 16:35 37.01631 25.11414 114 ft 13 kts 162°
2026-05-05 16:35 37.01560 25.11461 116 ft 10 kts 150°
2026-05-05 16:36 37.01506 25.11507 115 ft 7 kts 147°
2026-05-05 16:36 37.01482 25.11501 114 ft 15 kts 235°
2026-05-05 16:36 37.01484 25.11462 115 ft 0 kts 351°
2026-05-05 16:37 37.01586 25.11439 115 ft 41 kts 349°
2026-05-05 16:37 37.02064 25.11321 117 ft 101 kts 351°
2026-05-05 16:38 37.02945 25.11097 254 ft 144 kts 347°
2026-05-05 16:38 37.03994 25.11032 674 ft 168 kts
2026-05-05 16:38 37.05155 25.11520 1153 ft 191 kts 27°
2026-05-05 16:38 37.06131 25.12754 1744 ft 212 kts 50°
2026-05-05 16:39 37.07073 25.14247 2276 ft 225 kts 47°
2026-05-05 16:39 37.08161 25.15723 2803 ft 235 kts 42°
2026-05-05 16:39 37.09374 25.17155 3310 ft 243 kts 37°
2026-05-05 16:39 37.10728 25.18439 3825 ft 245 kts 31°
2026-05-05 16:40 37.12193 25.19532 4331 ft 245 kts 24°
2026-05-05 16:40 37.13729 25.20432 4871 ft 242 kts 15°
2026-05-05 16:40 37.15345 25.20442 5357 ft 238 kts 341°
2026-05-05 16:40 37.16666 25.19251 5867 ft 235 kts 315°
2026-05-05 16:41 37.17766 25.17732 6376 ft 236 kts 314°
2026-05-05 16:41 37.18878 25.16223 6867 ft 235 kts 317°
2026-05-05 16:41 37.20109 25.14864 7359 ft 235 kts 323°
2026-05-05 16:41 37.21460 25.13697 7862 ft 236 kts 329°
2026-05-05 16:42 37.22898 25.12676 8369 ft 239 kts 332°
2026-05-05 16:42 37.24358 25.11710 8875 ft 241 kts 333°
2026-05-05 16:42 37.25848 25.10722 9417 ft 243 kts 333°
2026-05-05 16:42 37.27341 25.09712 9948 ft 245 kts 332°
2026-05-05 16:43 37.28844 25.08675 10429 ft 247 kts 332°
2026-05-05 16:43 37.30348 25.07620 10921 ft 249 kts 332°
2026-05-05 16:43 37.31863 25.06555 11415 ft 250 kts 332°
2026-05-05 16:43 37.33390 25.05486 11879 ft 254 kts 333°
2026-05-05 16:44 37.34794 25.04022 11946 ft 275 kts 308°
2026-05-05 16:44 37.35607 25.01772 11976 ft 290 kts 294°
2026-05-05 16:44 37.36264 24.99336 11987 ft 298 kts 291°
2026-05-05 16:44 37.36888 24.96847 11992 ft 300 kts 291°
2026-05-05 16:45 37.37494 24.94337 11994 ft 300 kts 290°
2026-05-05 16:45 37.38093 24.91809 11992 ft 300 kts 290°
2026-05-05 16:45 37.38684 24.89296 11999 ft 301 kts 290°
2026-05-05 16:45 37.39276 24.86770 11997 ft 301 kts 290°
2026-05-05 16:46 37.39858 24.84274 11994 ft 301 kts 290°
2026-05-05 16:46 37.40448 24.81746 11995 ft 301 kts 290°
2026-05-05 16:46 37.41046 24.79191 11994 ft 301 kts 290°
2026-05-05 16:46 37.41638 24.76658 12004 ft 301 kts 290°
2026-05-05 16:47 37.42222 24.74161 11991 ft 301 kts 290°
2026-05-05 16:47 37.42817 24.71626 11985 ft 301 kts 290°
2026-05-05 16:47 37.43460 24.69121 11987 ft 300 kts 294°
2026-05-05 16:47 37.44236 24.66705 11986 ft 300 kts 296°
2026-05-05 16:48 37.45038 24.64257 11977 ft 300 kts 295°
2026-05-05 16:48 37.45801 24.61811 11984 ft 300 kts 294°
2026-05-05 16:48 37.46533 24.59351 11973 ft 301 kts 294°
2026-05-05 16:48 37.47269 24.56881 11977 ft 301 kts 294°
2026-05-05 16:49 37.48004 24.54416 11975 ft 301 kts 294°
2026-05-05 16:49 37.48739 24.51946 11972 ft 301 kts 294°
2026-05-05 16:49 37.49474 24.49475 11967 ft 301 kts 294°
2026-05-05 16:49 37.50210 24.47001 11969 ft 301 kts 294°
2026-05-05 16:50 37.50943 24.44524 11970 ft 301 kts 294°
2026-05-05 16:50 37.51676 24.42049 11969 ft 301 kts 294°
2026-05-05 16:50 37.52410 24.39579 11967 ft 302 kts 294°
2026-05-05 16:50 37.53141 24.37107 11967 ft 302 kts 294°
2026-05-05 16:51 37.53878 24.34622 11801 ft 301 kts 294°
2026-05-05 16:51 37.54586 24.32224 11414 ft 292 kts 294°
2026-05-05 16:51 37.55286 24.29842 11029 ft 288 kts 294°
2026-05-05 16:51 37.55983 24.27481 10665 ft 285 kts 294°
2026-05-05 16:52 37.56671 24.25150 10285 ft 282 kts 294°
2026-05-05 16:52 37.57347 24.22843 9921 ft 279 kts 294°
2026-05-05 16:52 37.58021 24.20553 9494 ft 276 kts 294°
2026-05-05 16:52 37.58685 24.18295 9080 ft 273 kts 294°
2026-05-05 16:53 37.59341 24.16058 8672 ft 269 kts 294°
2026-05-05 16:53 37.59978 24.13885 8276 ft 266 kts 294°
2026-05-05 16:53 37.60618 24.11702 7881 ft 263 kts 294°
2026-05-05 16:53 37.61249 24.09549 7495 ft 261 kts 294°
2026-05-05 16:54 37.61872 24.07417 7119 ft 258 kts 294°
2026-05-05 16:54 37.62490 24.05298 6746 ft 256 kts 294°
2026-05-05 16:54 37.63092 24.03241 6382 ft 253 kts 294°
2026-05-05 16:54 37.63691 24.01194 5988 ft 252 kts 294°
2026-05-05 16:55 37.64288 23.99146 5610 ft 251 kts 294°
2026-05-05 16:55 37.64956 23.97139 5225 ft 247 kts 300°
2026-05-05 16:55 37.65821 23.95261 4861 ft 248 kts 303°
2026-05-05 16:55 37.66735 23.93415 4478 ft 248 kts 304°
2026-05-05 16:56 37.67640 23.91645 4106 ft 237 kts 305°
2026-05-05 16:56 37.68568 23.89860 3721 ft 244 kts 305°
2026-05-05 16:56 37.69512 23.88060 3356 ft 248 kts 305°
2026-05-05 16:56 37.70475 23.86241 3099 ft 247 kts 305°
2026-05-05 16:57 37.71415 23.84470 3034 ft 240 kts 305°
2026-05-05 16:57 37.72331 23.82740 3000 ft 233 kts 305°
2026-05-05 16:57 37.73220 23.81051 2989 ft 228 kts 305°
2026-05-05 16:57 37.74097 23.79403 2984 ft 222 kts 308°
2026-05-05 16:58 37.75302 23.78322 2982 ft 217 kts 344°
2026-05-05 16:58 37.76786 23.78003 2987 ft 216 kts 352°
2026-05-05 16:58 37.78277 23.77833 2978 ft 213 kts
2026-05-05 16:58 37.79607 23.78574 2987 ft 217 kts 42°
2026-05-05 16:59 37.80527 23.80084 2983 ft 218 kts 51°
2026-05-05 16:59 37.81481 23.81578 2986 ft 218 kts 46°
2026-05-05 16:59 37.82551 23.82948 2855 ft 223 kts 41°
2026-05-05 16:59 37.83522 23.83993 2701 ft 228 kts 37°
2026-05-05 17:00 37.84800 23.85184 2594 ft 230 kts 33°
2026-05-05 17:00 37.86050 23.86266 2189 ft 198 kts 33°
2026-05-05 17:00 37.86998 23.87102 1862 ft 140 kts 33°
2026-05-05 17:00 37.87761 23.87770 1682 ft 138 kts 33°
2026-05-05 17:01 37.88575 23.88476 1456 ft 145 kts 34°
2026-05-05 17:01 37.89398 23.89232 1218 ft 149 kts 36°
2026-05-05 17:01 37.90236 23.90019 975 ft 153 kts 37°
2026-05-05 17:01 37.91091 23.90831 606 ft 152 kts 37°
2026-05-05 17:02 37.91846 23.91591 375 ft 140 kts 39°
2026-05-05 17:02 37.92581 23.92300 272 ft 126 kts 36°
2026-05-05 17:02 37.93008 23.92679 268 ft 28 kts 32°
2026-05-05 17:02 37.93045 23.92842 267 ft 18 kts 160°
2026-05-05 17:03 37.92952 23.92860 265 ft 12 kts 139°
2026-05-05 17:03 37.92978 23.92954 263 ft 14 kts 45°
2026-05-05 17:03 37.93056 23.93040 265 ft 20 kts 38°
2026-05-05 17:03 37.93226 23.93191 270 ft 31 kts 32°
2026-05-05 17:04 37.93370 23.93314 275 ft 21 kts 48°
2026-05-05 17:04 37.93406 23.93462 272 ft 17 kts 115°
2026-05-05 17:04 37.93343 23.93579 268 ft 15 kts 128°
2026-05-05 17:04 37.93282 23.93675 267 ft 13 kts 129°
2026-05-05 17:05 37.93227 23.93761 265 ft 12 kts 127°
2026-05-05 17:05 37.93178 23.93843 264 ft 11 kts 127°
2026-05-05 17:05 37.93132 23.93920 263 ft 11 kts 127°
2026-05-05 17:05 37.93093 23.93982 266 ft 7 kts 130°
2026-05-05 17:06 37.93041 23.94058 270 ft 18 kts 131°
2026-05-05 17:06 37.92937 23.94201 275 ft 25 kts 127°
2026-05-05 17:06 37.92861 23.94355 276 ft 18 kts 118°
2026-05-05 17:06 37.92833 23.94486 277 ft 15 kts 68°
2026-05-05 17:07 37.92911 23.94581 275 ft 17 kts 42°
2026-05-05 17:07 37.93002 23.94667 277 ft 16 kts 35°
2026-05-05 17:07 37.93094 23.94751 277 ft 17 kts 36°
2026-05-05 17:07 37.93211 23.94861 281 ft 25 kts 37°
2026-05-05 17:08 37.93350 23.94968 284 ft 22 kts
2026-05-05 17:08 37.93490 23.94974 286 ft 19 kts 38°
2026-05-05 17:08 37.93589 23.95081 287 ft 19 kts 38°
2026-05-05 17:08 37.93698 23.95191 288 ft 20 kts 39°
2026-05-05 17:09 37.93809 23.95296 287 ft 21 kts 34°
2026-05-05 17:09 37.93891 23.95368 291 ft 21 kts 36°
2026-05-05 17:09 37.94006 23.95478 294 ft 20 kts 35°
2026-05-05 17:09 37.94118 23.95586 295 ft 20 kts 39°
2026-05-05 17:10 37.94230 23.95656 299 ft 16 kts 347°
2026-05-05 17:10 37.94294 23.95557 291 ft 14 kts 303°
2026-05-05 17:10 37.94352 23.95471 287 ft 7 kts 345°
2026-05-05 17:10 37.94390 23.95491 289 ft 7 kts 37°
2026-05-05 17:11 37.94395 23.95499 290 ft 3 kts 54°
2026-05-05 17:11 37.94400 23.95503 289 ft 2 kts 23°
2026-05-05 17:11 37.94384 23.95480 286 ft 0 kts 217°